TimeEST,TemperatureF,Dew PointF,Humidity,Sea Level PressureIn,VisibilityMPH,Wind Direction,Wind SpeedMPH,Gust SpeedMPH,PrecipitationIn,Events,Conditions,WindDirDegrees,DateUTC
12:53 AM,45.0,39.9,82,30.14,7.0,Calm,Calm,-,N/A,,Mostly Cloudy,0,2012-11-21 05:53:00
1:53 AM,44.1,34.0,68,30.15,10.0,Calm,Calm,-,N/A,,Overcast,0,2012-11-21 06:53:00
2:53 AM,46.0,35.1,66,30.17,10.0,Calm,Calm,-,N/A,,Overcast,0,2012-11-21 07:53:00
3:53 AM,42.1,34.0,73,30.17,8.0,SW,3.5,-,N/A,,Clear,220,2012-11-21 08:53:00
4:53 AM,42.1,35.1,76,30.18,6.0,SSE,3.5,-,N/A,,Haze,160,2012-11-21 09:53:00
5:53 AM,41.0,35.1,79,30.20,5.0,Calm,Calm,-,N/A,,Haze,0,2012-11-21 10:53:00
6:53 AM,39.9,34.0,79,30.21,9.0,Calm,Calm,-,N/A,,Partly Cloudy,0,2012-11-21 11:53:00
7:53 AM,39.9,34.0,79,30.23,5.0,South,3.5,-,N/A,,Haze,180,2012-11-21 12:53:00
8:53 AM,44.1,36.0,73,30.24,4.0,South,4.6,-,N/A,,Haze,170,2012-11-21 13:53:00
9:53 AM,46.9,37.0,68,30.24,4.0,South,4.6,-,N/A,,Haze,190,2012-11-21 14:53:00
10:53 AM,50.0,39.0,66,30.24,-9999.0,Calm,Calm,-,N/A,,Clear,0,2012-11-21 15:53:00
11:53 AM,50.0,41.0,71,30.23,-9999.0,NW,4.6,-,N/A,,Unknown,310,2012-11-21 16:53:00
12:53 PM,50.0,45.0,83,30.22,4.0,NW,3.5,-,N/A,,Haze,310,2012-11-21 17:53:00
1:53 PM,50.0,45.0,83,30.21,4.0,NNW,3.5,-,N/A,,Haze,340,2012-11-21 18:53:00
2:53 PM,51.1,44.1,77,30.20,6.0,NNE,3.5,-,N/A,,Haze,30,2012-11-21 19:53:00
3:53 PM,50.0,45.0,83,30.20,4.0,Calm,Calm,-,N/A,,Haze,0,2012-11-21 20:53:00
4:53 PM,46.9,44.1,90,30.20,2.5,North,-9999.0,-,N/A,,Mist,0,2012-11-21 21:53:00
5:00 PM,46.4,44.6,93,30.20,4.0,Calm,Calm,-,N/A,,Clear,0,2012-11-21 22:00:00
5:53 PM,44.1,43.0,96,30.20,4.0,North,-9999.0,-,N/A,,Clear,0,2012-11-21 22:53:00
6:53 PM,43.0,42.1,97,30.19,4.0,Calm,Calm,-,N/A,,Clear,0,2012-11-21 23:53:00
7:53 PM,44.1,39.9,85,30.20,6.0,Calm,Calm,-,N/A,,Clear,0,2012-11-22 00:53:00
8:53 PM,46.0,36.0,68,30.19,8.0,SSE,5.8,-,N/A,,Clear,160,2012-11-22 01:53:00
9:53 PM,46.9,35.1,63,30.19,10.0,SSE,9.2,-,N/A,,Clear,160,2012-11-22 02:53:00
10:53 PM,46.0,34.0,63,30.19,10.0,SSE,8.1,-,N/A,,Clear,160,2012-11-22 03:53:00
11:53 PM,45.0,34.0,65,30.19,10.0,SSE,9.2,-,N/A,,Clear,150,2012-11-22 04:53:00